Hannibal Rgnl AP, Hannibal, M, MO

2:31 PM CDT on September 20, 2017 (GMT -0500)
Hannibal Municipal

Weather History for KHAE - January, 2014

Change the Weather History Date:

Wednesday, January 15, 2014

  Actual Average Record
Temperature  
Mean Temperature 24 °F -  
Max Temperature 32 °F 31 °F 46 °F (2015)
Min Temperature 17 °F 16 °F 17 °F (2014)
Degree Days  
Heating Degree Days 42    
Moisture  
Dew Point 10 °F    
Average Humidity 56    
Maximum Humidity 68    
Minimum Humidity 41    
Precipitation  
Precipitation 0.00 in - - ()
Sea Level Pressure  
Sea Level Pressure 30.10 in    
Wind  
Wind Speed 12 mph (West)    
Max Wind Speed 17 mph    
Max Gust Speed 25 mph    
Visibility 10 miles    
Events      
Averages and records for this station are not official NWS values.
T = Trace of Precipitation, MM = Missing Value Source: NWS Daily Summary

Daily Weather History Graph

Daily Weather History Graph

Search for Another Location

Airport or City:

Trip Planner

Search our weather history database for the weather conditions in past years. The results will help you decide how hot, cold, wet, or windy it might be!

Date:

Astronomy

Jan. 15, 2014 Rise Set
Actual Time 7:24 AM CST 5:05 PM CST
Civil Twilight 6:55 AM CST 5:35 PM CST
Nautical Twilight 6:22 AM CST 6:08 PM CST
Astronomical Twilight 5:49 AM CST 6:40 PM CST
Moon 5:03 PM CST (1/15) 6:41 AM CST (1/15)
Length of Visible Light 10h 40m
Length of Day
9h 40m
Full, 100% of the Moon is Illuminated
Jan 15
Full
Jan 15
Full
Jan 23
Last Quarter
Jan 30
New
Feb 6
First Quarter

Hourly Weather History & Observations

Time (CST) Temp. Windchill Dew Point Humidity Pressure Visibility Wind Dir Wind Speed Gust Speed Precip Events Conditions
12:15 AM 26.6 °F 14.7 °F 12.2 °F 55% 30.10 in 10.0 mi NW 15.0 mph 23.0 mph N/A   Overcast
12:35 AM 26.6 °F 16.8 °F 12.2 °F 55% 30.10 in 10.0 mi WNW 10.4 mph 17.3 mph N/A   Overcast
12:55 AM 26.6 °F 13.8 °F 12.2 °F 55% 30.10 in 10.0 mi NW 17.3 mph 25.3 mph N/A   Overcast
1:15 AM 26.6 °F 15.2 °F 10.4 °F 51% 30.11 in 10.0 mi NW 13.8 mph 25.3 mph N/A   Overcast
1:35 AM 26.6 °F 14.3 °F 10.4 °F 51% 30.11 in 10.0 mi NW 16.1 mph 20.7 mph N/A   Overcast
1:55 AM 24.8 °F 12.4 °F 10.4 °F 54% 30.12 in 10.0 mi NW 15.0 mph 23.0 mph N/A   Overcast
2:15 AM 24.8 °F 12.4 °F 10.4 °F 54% 30.12 in 10.0 mi NW 15.0 mph 25.3 mph N/A   Overcast
2:35 AM 23.0 °F 10.1 °F 10.4 °F 59% 30.13 in 10.0 mi NW 15.0 mph 24.2 mph N/A   Overcast
2:55 AM 23.0 °F 10.6 °F 10.4 °F 59% 30.13 in 10.0 mi NW 13.8 mph 21.9 mph N/A   Overcast
3:15 AM 23.0 °F 10.1 °F 10.4 °F 59% 30.14 in 10.0 mi NW 15.0 mph 19.6 mph N/A   Overcast
3:35 AM 23.0 °F 12.4 °F 10.4 °F 59% 30.13 in 10.0 mi NW 10.4 mph - N/A   Overcast
3:55 AM 23.0 °F 11.1 °F 10.4 °F 59% 30.14 in 10.0 mi NW 12.7 mph 19.6 mph N/A   Mostly Cloudy
4:15 AM 23.0 °F 10.6 °F 10.4 °F 59% 30.13 in 10.0 mi WNW 13.8 mph 20.7 mph N/A   Overcast
4:35 AM 21.2 °F 8.3 °F 8.6 °F 58% 30.14 in 10.0 mi WNW 13.8 mph 20.7 mph N/A   Overcast
4:55 AM 21.2 °F 7.8 °F 8.6 °F 58% 30.14 in 10.0 mi NW 15.0 mph - N/A   Mostly Cloudy
5:15 AM 19.4 °F 6.6 °F 8.6 °F 63% 30.14 in 10.0 mi NW 12.7 mph - N/A   Scattered Clouds
5:35 AM 19.4 °F 5.0 °F 8.6 °F 63% 30.15 in 10.0 mi NW 16.1 mph 20.7 mph N/A   Clear
5:55 AM 19.4 °F 6.0 °F 8.6 °F 63% 30.16 in 10.0 mi NW 13.8 mph 24.2 mph N/A   Clear
6:15 AM 19.4 °F 7.2 °F 8.6 °F 63% 30.16 in 10.0 mi NW 11.5 mph 18.4 mph N/A   Clear
6:35 AM 17.6 °F 5.0 °F 8.6 °F 68% 30.16 in 10.0 mi NW 11.5 mph 17.3 mph N/A   Clear
6:55 AM 17.6 °F 6.4 °F 8.6 °F 68% 30.17 in 10.0 mi NW 9.2 mph - N/A   Clear
7:15 AM 17.6 °F 4.3 °F 8.6 °F 68% 30.18 in 10.0 mi NW 12.7 mph 17.3 mph N/A   Clear
7:35 AM 17.6 °F 5.0 °F 8.6 °F 68% 30.18 in 10.0 mi NW 11.5 mph - N/A   Scattered Clouds
7:55 AM 17.6 °F 5.7 °F 8.6 °F 68% 30.19 in 10.0 mi NW 10.4 mph - N/A   Clear
8:15 AM 17.6 °F 4.3 °F 8.6 °F 68% 30.19 in 10.0 mi NW 12.7 mph 19.6 mph N/A   Clear
8:55 AM 19.4 °F 9.5 °F 8.6 °F 63% 30.20 in 10.0 mi NW 8.1 mph 16.1 mph N/A   Scattered Clouds
9:15 AM 19.4 °F 7.9 °F 8.6 °F 63% 30.20 in 10.0 mi WNW 10.4 mph - N/A   Scattered Clouds
9:35 AM 19.4 °F 5.5 °F 6.8 °F 58% 30.20 in 10.0 mi WNW 15.0 mph 19.6 mph N/A   Scattered Clouds
9:55 AM 21.2 °F 9.5 °F 6.8 °F 54% 30.21 in 10.0 mi NNW 11.5 mph 18.4 mph N/A   Clear
10:15 AM 21.2 °F 10.9 °F 6.8 °F 54% 30.22 in 10.0 mi NW 9.2 mph - N/A   Clear
10:35 AM 21.2 °F 10.9 °F 5.0 °F 50% 30.21 in 10.0 mi NW 9.2 mph - N/A   Scattered Clouds
10:55 AM 23.0 °F 13.9 °F 6.8 °F 50% 30.21 in 10.0 mi NW 8.1 mph 17.3 mph N/A   Clear
11:15 AM 23.0 °F 15.8 °F 8.6 °F 54% 30.20 in 10.0 mi NW 5.8 mph - N/A   Scattered Clouds
11:35 AM 23.0 °F 14.7 °F 8.6 °F 54% 30.19 in 10.0 mi NW 6.9 mph - N/A   Scattered Clouds
11:55 AM 24.8 °F 16.9 °F 8.6 °F 50% 30.17 in 10.0 mi West 6.9 mph - N/A   Scattered Clouds
12:15 PM 26.6 °F 16.8 °F 8.6 °F 47% 30.17 in 10.0 mi WNW 10.4 mph - N/A   Clear
12:35 PM 26.6 °F 19.1 °F 8.6 °F 47% 30.16 in 10.0 mi WNW 6.9 mph - N/A   Scattered Clouds
12:55 PM 26.6 °F 18.2 °F 8.6 °F 47% 30.15 in 10.0 mi WSW 8.1 mph - N/A   Scattered Clouds
1:15 PM 26.6 °F 16.2 °F 8.6 °F 47% 30.15 in 10.0 mi West 11.5 mph - N/A   Scattered Clouds
1:35 PM 26.6 °F 20.0 °F 8.6 °F 47% 30.13 in 10.0 mi West 5.8 mph - N/A   Scattered Clouds
1:55 PM 26.6 °F 19.1 °F 10.4 °F 51% 30.12 in 10.0 mi WSW 6.9 mph - N/A   Scattered Clouds
2:15 PM 28.4 °F 19.1 °F 10.4 °F 47% 30.12 in 10.0 mi WSW 10.4 mph - N/A   Mostly Cloudy
2:35 PM 26.6 °F 17.5 °F 10.4 °F 51% 30.12 in 10.0 mi SW 9.2 mph 16.1 mph N/A   Scattered Clouds
2:55 PM 28.4 °F 19.1 °F 10.4 °F 47% 30.12 in 10.0 mi SW 10.4 mph - N/A   Scattered Clouds
3:15 PM 26.6 °F 16.2 °F 10.4 °F 51% 30.11 in 10.0 mi WSW 11.5 mph 16.1 mph N/A   Scattered Clouds
3:35 PM 26.6 °F 20.0 °F 10.4 °F 51% 30.11 in 10.0 mi WSW 5.8 mph 9.2 mph N/A   Clear
3:55 PM 28.4 °F 22.2 °F 10.4 °F 47% 30.10 in 10.0 mi SW 5.8 mph - N/A   Clear
4:15 PM 26.6 °F 21.2 °F 10.4 °F 51% 30.09 in 10.0 mi SW 4.6 mph - N/A   Clear
4:55 PM 24.8 °F 17.9 °F 10.4 °F 54% 30.08 in 10.0 mi SSW 5.8 mph - N/A   Clear
5:15 PM 24.8 °F 19.1 °F 12.2 °F 59% 30.07 in 10.0 mi SSW 4.6 mph - N/A   Clear
5:35 PM 23.0 °F 15.8 °F 12.2 °F 63% 30.06 in 10.0 mi South 5.8 mph - N/A   Clear
5:55 PM 23.0 °F 17.0 °F 12.2 °F 63% 30.05 in 10.0 mi South 4.6 mph - N/A   Clear
6:15 PM 24.8 °F 17.9 °F 12.2 °F 59% 30.04 in 10.0 mi South 5.8 mph - N/A   Clear
6:35 PM 24.8 °F 19.1 °F 12.2 °F 59% 30.04 in 10.0 mi South 4.6 mph - N/A   Clear
6:55 PM 23.0 °F 15.8 °F 12.2 °F 63% 30.03 in 10.0 mi South 5.8 mph - N/A   Clear
7:15 PM 23.0 °F 15.8 °F 14.0 °F 68% 30.01 in 10.0 mi South 5.8 mph - N/A   Scattered Clouds
7:35 PM 23.0 °F 15.8 °F 14.0 °F 68% 30.01 in 10.0 mi South 5.8 mph - N/A   Scattered Clouds
7:55 PM 23.0 °F 15.8 °F 14.0 °F 68% 30.01 in 10.0 mi South 5.8 mph - N/A   Scattered Clouds
8:15 PM 24.8 °F 17.9 °F 14.0 °F 64% 30.00 in 10.0 mi South 5.8 mph - N/A   Overcast
9:15 PM 26.6 °F 17.5 °F 14.0 °F 59% 29.95 in 10.0 mi South 9.2 mph - N/A   Overcast
9:35 PM 28.4 °F 19.1 °F 14.0 °F 55% 29.93 in 10.0 mi South 10.4 mph - N/A   Overcast
9:55 PM 28.4 °F 19.7 °F 14.0 °F 55% 29.93 in 10.0 mi South 9.2 mph - N/A   Overcast
10:15 PM 28.4 °F 19.1 °F 12.2 °F 51% 29.91 in 10.0 mi South 10.4 mph 19.6 mph N/A   Overcast
10:35 PM 28.4 °F 19.1 °F 12.2 °F 51% 29.90 in 10.0 mi South 10.4 mph - N/A   Overcast
10:55 PM 30.2 °F 21.3 °F 12.2 °F 47% 29.88 in 10.0 mi South 10.4 mph - N/A   Overcast
11:15 PM 30.2 °F 21.9 °F 12.2 °F 47% 29.88 in 10.0 mi South 9.2 mph - N/A   Overcast
11:35 PM 30.2 °F 21.3 °F 10.4 °F 44% 29.88 in 10.0 mi South 10.4 mph - N/A   Overcast
11:55 PM 32.0 °F 24.2 °F 10.4 °F 41% 29.87 in 10.0 mi South 9.2 mph - N/A   Overcast